Regional Weather Roundup
Issued by NWS San Angelo, TX

Home | Current Version | Previous Version | Text Only | Print | Product List | Glossary On
Versions: 1 2 3 4 5 6 7 8 9 10 11 12 13 14 15 16 17 18 19 20 21 22 23 24 25 26 27 28 29 30 31 32 33 34 35 36 37 38 39 40 41 42 43 44 45 46 47 48 49 50
000
ASUS44 KSJT 310110
RWRSJT
WEST CENTRAL TEXAS REGIONAL WEATHER ROUNDUP
NATIONAL WEATHER SERVICE SAN ANGELO TX
800 PM CDT SUN AUG 30 2015

NOTE: "FAIR" INDICATES FEW OR NO CLOUDS BELOW 12,000 FEET WITH NO
SIGNIFICANT WEATHER AND/OR OBSTRUCTIONS TO VISIBILITY.

TXZ049-054-064>066-071>073-076>078-098-099-113-114-127-128-139-140-
154-155-168>170-310200
...LOCATIONS ACROSS WEST CENTRAL TEXAS...

CITY           SKY/WX    TMP DP  RH WIND       PRES   REMARKS
SAN ANGELO     PTCLDY    79  62  56 S8        29.99S
ABILENE        MOCLDY    88  58  36 S12       29.97S
DYESS AFB      PTCLDY    87  59  38 SE7       29.95S
JUNCTION       CLOUDY    73  67  81 CALM      30.03S
SWEETWATER     CLEAR     86  52  30 SE5       30.01S
BROWNWOOD      NOT AVBL
COLEMAN        PTCLDY    86  58  38 S8        29.99R
SONORA         LGT RAIN  79  61  53 SE6       30.06F
OZONA          FAIR      75  61  60 SE5       30.04S
BRADY          CLEAR     82  63  51 S6        30.01S
$$

TEXAS PANHANDLE/OKLAHOMA PANHANDLE

CITY           SKY/WX    TMP DP  RH WIND       PRES   REMARKS
AMARILLO       CLEAR     80  51  36 S9        30.02F
BORGER         CLEAR     86  49  27 SE5       29.98F HAZE
CANADIAN       CLEAR     83  57  41 SE8       29.94S
DALHART        CLEAR     84  47  27 S10       30.02F
DUMAS          CLEAR     78  51  38 SE8       30.01F
GUYMON         NOT AVBL
HEREFORD       CLEAR     78  58  50 SE7       30.03F
PAMPA          CLEAR     79  53  40 S7        30.00F
PERRYTON       CLEAR     82  46  27 SE7       29.97S
$$

SOUTHERN PANHANDLE/SOUTH PLAINS/ROLLING PLAINS

CITY           SKY/WX    TMP DP  RH WIND       PRES   REMARKS
LUBBOCK        CLEAR     83  52  34 S8        30.01F
SNYDER         PTCLDY    87  56  35 SE8       29.98F
CHILDRESS      CLEAR     89  53  29 E3        29.92F
SEMINOLE       CLEAR     84  49  29 S5        30.03S
$$

PERMIAN BASIN

CITY           SKY/WX    TMP DP  RH WIND       PRES   REMARKS
MIDLAND        PTCLDY    88  50  27 SE12      29.99F
ODESSA         PTCLDY    87  49  26 S10       30.01F
WINK           CLEAR     88  50  27 E10       29.96F
$$

FAR WEST/SOUTHWEST MOUNTAINS/TRANS PECOS

CITY           SKY/WX    TMP DP  RH WIND       PRES   REMARKS
ALPINE         CLEAR     81  47  30 SE9G16    30.13S
DRYDEN           N/A     87  59  38 E14G22    29.97S
EL PASO        FAIR      89  46  22 SE7       30.00S
FORT STOCKTON  CLEAR     86  48  26 SE14      30.00S
GUADALUPE PASS CLEAR     77  43  29 E16       30.16S
MARFA          PTCLDY    81  48  32 E6        30.11F
PECOS          CLEAR     89  47  23 E12       29.95S
$$

DALLAS/FORT WORTH METROPLEX

CITY           SKY/WX    TMP DP  RH WIND       PRES   REMARKS
DFW AIRPORT    MOCLDY    89  57  33 S13       29.92S
FTW MEACHAM    PTCLDY    88  62  41 S12       29.92S
DAL-EXECUTIVE  MOCLDY    87  62  43 S9        29.93S
GRAND PRAIRIE  CLEAR     88  64  45 S7        29.94S
ADDISON        PTCLDY    90  61  37 S13       29.93S
MESQUITE       CLEAR     84  64  51 S7        29.94S
LANCASTER      MOCLDY    86  63  45 S7        29.95R
$$

NORTH CENTRAL TEXAS

CITY           SKY/WX    TMP DP  RH WIND       PRES   REMARKS
SHRMAN/DENISON MOCLDY    91  58  33 S9        29.91R
GAINESVILLE    CLEAR     88  59  36 S7        29.92S
BRIDGEPORT     PTCLDY    87  63  44 S7        29.93S
DENTON         PTCLDY    89  63  41 S14       29.91S
WAXAHACHIE     MOCLDY    85  64  49 S6        29.96S
GRANBURY       MOCLDY    86  64  47 SE9       29.96R
$$

WESTERN NORTH TEXAS

CITY           SKY/WX    TMP DP  RH WIND       PRES   REMARKS
WICHITA FALLS  CLEAR     89  60  37 SE5       29.88S
VERNON         CLEAR     91  49  23 E6        29.90S
BRECKENRIDGE   PTCLDY    89  57  33 S8        29.93S HAZE
COMANCHE       PTCLDY    83  60  46 SE7       29.98S
$$

CENTRAL AND SOUTH CENTRAL TEXAS

CITY           SKY/WX    TMP DP  RH WIND       PRES   REMARKS
AUSTIN/BERGSTM MOCLDY    85  63  47 E5        29.96R
WACO           CLOUDY    82  70  66 CALM      29.96R
HILLSBORO      MOCLDY    83  60  44 SE5       29.95F
TEMPLE         CLOUDY    75  63  64 S8        29.97F
KILLEEN-GRAY   CLOUDY    76  67  72 SE7       29.98F
FORT HOOD      CLOUDY    76  67  73 S8        29.97F
GEORGETOWN     LGT RAIN  73  68  83 NE6       30.00F
LAGO VISTA     FAIR      74  68  80 N5        30.01S
SAN MARCOS     PTCLDY    86  61  42 E7        29.97S
NEW BRAUNFELS  CLEAR     87  63  44 E6        29.94S
RANDOLPH AFB   MOCLDY    85  62  45 SE8       29.95S
SAN ANTONIO    PTCLDY    86  63  45 E9        29.95F
STINSON        PTCLDY    88  62  41 E8        29.92S
PLEASANTON     NOT AVBL
LA GRANGE      MOCLDY    85  68  56 CALM      29.94S
GIDDINGS       MOCLDY    82  64  55 E3        30.00S
$$

EAST TEXAS

CITY           SKY/WX    TMP DP  RH WIND       PRES   REMARKS
PARIS          CLEAR     84  63  48 S9        29.94S
CLARKSVILLE    NOT AVBL
TYLER          PTCLDY    84  65  52 S5        29.96R
LONGVIEW       PTCLDY    81  70  69 CALM      29.95R
PALESTINE      NOT AVBL
NACOGDOCHES    MOCLDY    82  63  51 S6        29.96R
$$

TEXAS HILL COUNTRY AND EDWARDS PLATEAU

CITY           SKY/WX    TMP DP  RH WIND       PRES   REMARKS
LLANO          CLOUDY    79  64  61 CALM      30.02F
HORSESHOE BAY  LGT RAIN  71  68  91 CALM      30.00R
KERRVILLE      MOCLDY    76  66  69 NE5       30.03R
FREDERICKSBRG  MOCLDY    73  65  76 CALM      30.02S
ROCKSPRINGS    LGT RAIN  68  64  88 SE9       30.08S
HONDO          MOCLDY    87  61  41 E7        29.98R
UVALDE         MOCLDY    88  60  38 NE8       29.96R
DEL RIO        CLOUDY    84  61  45 NE15G22   29.92R
$$

SOUTHEAST TEXAS

CITY           SKY/WX    TMP DP  RH WIND       PRES   REMARKS
COLLEGE STN    PTCLDY    83  66  56 S5        29.96S
CALDWELL       MOCLDY    81  70  69 CALM      30.00S
CROCKETT       CLOUDY    81  64  57 S3        30.00R
BRENHAM        PTCLDY    83  72  69 CALM      29.97S
HUNTSVILLE     MOCLDY    83  64  52 CALM      29.97R
CONROE         PTCLDY    77  67  71 CALM      29.97R
HOUSTON BUSH   MOCLDY    81  68  64 SE8       29.96R
HOUSTON HOBBY  MOCLDY    82  68  62 SE7       29.96R
PERLAND        MOCLDY    83  69  62 SE5       29.97S
WHARTON        PTCLDY    81  70  69 SE7       29.96S
$$

THE UPPER TEXAS COAST

CITY           SKY/WX    TMP DP  RH WIND       PRES   REMARKS
ORANGE         PTCLDY    78  68  72 CALM      29.97S
PORT ARTHUR    PTCLDY    76  70  82 S5        29.95S
GALVESTON      PTCLDY    83  68  60 S8        29.97R
ANGLETON       PTCLDY    81  71  71 SE5       29.96S
BAY CITY       PTCLDY    81  73  75 SE3       29.96R
$$

TEXAS COASTAL BEND, RIO GRANDE PLAINS DEEP SOUTH TEXAS

CITY           SKY/WX    TMP DP  RH WIND       PRES   REMARKS
VICTORIA       CLEAR     84  68  58 SE9       29.94R
BEEVILLE       FAIR      85  71  64 SE9G16    29.94R
ROCKPORT       CLEAR     84  71  65 SE12      29.93R
PORT ARANSAS   CLEAR     83  74  73 SE12      29.93S
PORT LAVACA    PTCLDY    82  70  66 SE8       29.95R
CORPUS CHRISTI MOCLDY    85  72  65 SE17      29.93R
KINGSVILLE NAS MOCLDY    85  75  72 SE14      29.92S
COTULLA        MOCLDY    94  57  28 E5        29.90R
LAREDO         PTCLDY    95  56  26 E8        29.89R
BROWNSVILLE    PTCLDY    82  73  74 SE9       29.93R
PORT ISABEL    CLEAR     84  75  74 SE12      29.92S
HEBBRONVILLE   NOT AVBL
MCALLEN        PTCLDY    87  73  62 SE16      29.91R
WESLACO        PTCLDY    84  72  65 SE10G16   29.92R
FALFURRIAS     CLEAR     86  70  58 E12G17    29.91S
EDINBURG       CLEAR     87  72  62 SE15      29.92R
$$


USA.gov is the U.S. government's official web portal to all federal, state and local government web resources and services.